sat.trackr.live / text

‹ back to catalog

GPS BIIF-4 (PRN 27)

NORAD 39166 · 2013-023A

PAYLOAD ACTIVE UNKNOWN

§ Identity

Operator
Country
US
Launch date
2013-05-15
Launch site
AFETR
Launch vehicle
Mass (kg)
RCS (m²)
11.00

Purposes: earth_obs, nav

External: N2YO · Heavens-Above · Gunter

§ Orbital elements

Epoch: 2026-09-19T09:56:55.948416Z

Period
717.98 min
Inclination
54.4382°
Eccentricity
0.0142581
Mean motion
2.00563299 rev/d
Perigee alt
19,803.5 km
Apogee alt
20,560.9 km
Semi-major
26,560.4 km
B*
0.0000e+0
RAAN
265.1277°
Arg perigee
51.1509°
Mean anomaly
310.1360°
Rev number
9,777

§ Raw data

GPS BIIF-4  (PRN 27)1 39166U 13023A   26262.41453644  .00000027  00000+0  00000+0 0  99902 39166  54.4382 265.1277 0142581  51.1509 310.1360  2.00563299 97775

JSON: /api/v1/satellites/39166 · /tle

For live sub-satellite position, see the globe view (requires WebGL).

§ Visibility from observer

Set your observer location to see the next 7 days of passes ≥ 10°. The values pass through the URL so the page stays shareable.

No JS? Fill the form by hand. The geolocation button needs JavaScript.